カタログに戻る

OSCAR 14

UOSAT 3

運用中アマチュア無線SSO
NORAD 20437·PAYLOAD·🇬🇧 United Kingdom

打ち上げ Jan 22, 1990 から Guiana Space Centre

Loading…

次のパス (今後24時間)

TLE

最新Source: Space-Track

元期: Sep 14, 2026, 09:55 UTC

1 20437U 90005B   26257.41321689  .00000056  00000-0  36892-4 0  9999
2 20437  98.7941 308.1257 0010437   8.2986   2.7943 14.33285779914378

AllMySatでOSCAR 14をリアルタイム追跡

Download on the App Store